$DATE,$TIME,DM0600B,DM0602B,DM0604B,DM0614B,DM0616B,DM0618B,DM0624B,DM0628B,DM0630B,DM0634B,DM0606B,DM0608B,DM0610B
10/03/94,00:00:00,0,0,11,33,25,14,38,77,33,0,16,17,5
10/03/94,00:05:00,3,0,10,38,25,14,38,77,33,0,12,12,5
10/03/94,00:10:00,14,0,10,31,26,15,39,77,33,0,10,9,5
10/03/94,00:15:00,17,0,23,55,26,15,39,77,33,0,8,8,5
10/03/94,00:20:00,6,0,6,46,26,15,39,77,33,0,7,15,5
10/03/94,00:25:00,40,0,30,42,25,14,39,129,33,0,7,18,5
10/03/94,00:30:00,11,0,7,42,25,14,38,77,33,0,13,13,15
10/03/94,00:35:00,2,0,11,44,25,14,38,77,33,0,17,10,13
10/03/94,00:40:00,0,1,12,28,25,14,38,77,33,0,13,8,10
10/03/94,00:45:00,28,0,41,36,24,14,37,77,33,0,10,7,8
10/03/94,00:50:00,2,0,14,45,24,14,37,77,33,0,8,15,7
10/03/94,00:55:00,11,0,2,49,24,13,36,77,33,0,7,18,6
10/03/94,01:00:00,32,1,15,46,24,14,36,77,33,0,7,13,6
10/03/94,01:05:00,0,0,14,41,24,14,37,77,33,0,7,10,6
10/03/94,01:10:00,14,0,0,47,24,14,37,77,49,0,16,8,6
10/03/94,01:15:00,0,2,25,37,24,13,36,77,33,0,16,14,6
10/03/94,01:20:00,2,0,18,42,24,13,36,77,33,0,13,17,6
10/03/94,01:25:00,13,0,19,42,23,13,36,77,33,0,10,12,5
10/03/94,01:30:00,23,0,18,45,23,13,35,77,33,0,8,9,5
10/03/94,01:35:00,0,0,43,57,23,13,35,77,33,0,7,9,5
10/03/94,01:40:00,2,1,2,52,22,13,34,77,33,0,12,19,6
10/03/94,01:45:00,0,7,0,39,22,13,34,78,33,0,16,16,6
10/03/94,01:50:00,10,0,1,47,22,13,34,77,33,0,13,12,6
10/03/94,01:55:00,,,,,,,,,,,,,
10/03/94,02:00:00,,,,,,,,,,,,,
10/03/94,02:05:00,,,,,,,,,,,,,
10/03/94,02:10:00,,,,,,,,,,,,,
10/03/94,02:15:00,,,,,,,,,,,,,
10/03/94,02:20:00,,,,,,,,,,,,,
10/03/94,02:25:00,,,,,,,,,,,,,
10/03/94,02:30:00,,,,,,,,,,,,,
10/03/94,02:35:00,,,,,,,,,,,,,
10/03/94,02:40:00,21,0,23,39,21,12,32,78,26,0,9,13,5
10/03/94,02:45:00,2,0,3,35,20,12,31,77,26,0,17,10,6
10/03/94,02:50:00,24,0,28,48,20,11,30,77,26,0,15,9,6
10/03/94,02:55:00,5,0,30,37,19,11,30,78,26,0,11,9,5
10/03/94,03:00:00,18,0,10,38,19,11,29,77,26,0,9,18,5
10/03/94,03:05:00,2,0,13,39,18,11,29,77,26,0,7,17,5
10/03/94,03:10:00,0,0,1,42,19,11,30,78,26,0,7,12,5
10/03/94,03:15:00,0,0,6,51,20,12,31,78,26,0,11,10,5
10/03/94,03:20:00,11,0,13,42,21,12,33,77,26,0,18,8,4
10/03/94,03:25:00,7,0,8,49,23,13,35,78,26,0,15,12,5
10/03/94,03:30:00,18,0,21,36,24,14,37,77,26,0,11,19,4
10/03/94,03:35:00,27,0,27,43,25,14,38,77,26,0,9,13,4
10/03/94,03:40:00,9,0,20,42,24,14,37,77,26,0,8,10,4
10/03/94,03:45:00,5,0,14,44,23,13,36,77,26,0,6,8,4
10/03/94,03:50:00,2,0,14,38,22,13,34,77,26,0,8,9,5
10/03/94,03:55:00,1,0,31,43,21,12,33,77,26,0,16,19,5
10/03/94,04:00:00,0,0,0,44,20,12,31,77,26,0,14,14,5
10/03/94,04:05:00,21,4,0,39,20,11,30,77,26,0,11,11,5
10/03/94,04:10:00,0,0,9,43,19,11,30,77,26,0,9,8,5
10/03/94,04:15:00,21,0,4,34,18,11,28,77,26,0,7,9,5
10/03/94,04:20:00,0,0,16,56,18,10,27,77,26,0,7,18,5
10/03/94,04:25:00,4,0,25,41,17,10,26,77,26,0,13,17,5
10/03/94,04:30:00,4,0,19,42,16,9,25,77,26,0,16,12,5
10/03/94,04:35:00,18,0,23,45,16,9,24,77,26,0,12,9,5
10/03/94,04:40:00,36,0,19,32,15,9,24,77,26,0,10,9,5
10/03/94,04:45:00,0,0,24,44,14,8,23,77,26,0,8,19,5
10/03/94,04:50:00,24,0,11,55,14,8,22,77,26,0,8,17,5
10/03/94,04:55:00,9,0,13,39,14,8,22,77,26,0,14,12,6
10/03/94,05:00:00,9,0,46,41,13,8,21,78,26,0,17,9,6
10/03/94,05:05:00,0,0,7,41,12,7,20,78,33,0,14,13,5
10/03/94,05:10:00,7,0,45,40,11,7,18,77,33,0,10,22,5
10/03/94,05:15:00,6,0,56,54,11,6,17,78,33,0,9,16,5
10/03/94,05:20:00,26,0,17,31,10,6,16,78,26,0,15,11,17
10/03/94,05:25:00,17,1,0,54,9,5,15,78,26,0,17,9,13
10/03/94,05:30:00,0,0,35,47,9,5,14,78,26,0,13,16,10
10/03/94,05:35:00,0,0,26,53,9,5,15,78,26,0,10,20,8
10/03/94,05:40:00,0,0,15,46,9,5,15,78,26,0,9,13,7
10/03/94,05:45:00,2,0,19,51,8,5,14,78,26,0,16,10,6
10/03/94,05:50:00,1,0,50,51,8,5,13,78,26,0,19,16,6
10/03/94,05:55:00,12,0,7,59,8,5,13,77,26,0,14,21,5
10/03/94,06:00:00,32,0,52,31,8,5,13,78,26,0,11,14,5
10/03/94,06:05:00,5,0,19,56,7,4,12,78,26,0,11,12,10
10/03/94,06:10:00,2,0,17,42,6,4,10,77,26,0,18,20,15
10/03/94,06:15:00,3,0,14,42,5,3,9,78,26,0,15,17,11
10/03/94,06:20:00,17,0,23,50,4,3,7,78,26,0,12,12,8
10/03/94,06:25:00,0,0,8,45,3,2,6,78,26,0,11,14,7
10/03/94,06:30:00,41,0,53,42,3,2,6,148,26,0,19,23,6
10/03/94,06:35:00,29,0,20,38,3,2,5,78,30,0,19,17,17
10/03/94,06:40:00,35,12,0,47,2,2,5,79,30,0,14,14,14
10/03/94,06:45:00,26,0,31,50,2,2,5,78,30,0,20,24,10
10/03/94,06:50:00,17,0,13,47,2,2,4,78,30,0,19,18,8
10/03/94,06:55:00,25,0,18,52,2,2,4,78,30,0,14,13,9
10/03/94,07:00:00,4,0,12,56,2,1,4,78,30,0,14,19,19
10/03/94,07:05:00,25,0,16,47,1,1,3,78,30,0,20,21,13
10/03/94,07:10:00,7,0,5,54,1,1,3,78,30,0,16,14,10
10/03/94,07:15:00,1,0,10,54,1,1,3,78,30,0,12,15,8
10/03/94,07:20:00,2,0,36,50,1,1,3,78,30,0,17,24,16
10/03/94,07:25:00,27,0,24,41,1,1,2,78,30,0,19,17,14
10/03/94,07:30:00,15,0,46,67,0,1,2,78,30,0,15,13,10
10/03/94,07:35:00,15,0,32,53,0,0,1,78,30,0,13,19,8
10/03/94,07:40:00,11,0,23,49,0,0,1,78,30,0,20,23,18
10/03/94,07:45:00,3,0,28,50,0,0,1,78,30,0,18,15,14
10/03/94,07:50:00,0,0,25,58,0,0,0,78,30,0,13,14,11
10/03/94,07:55:00,6,0,16,45,0,0,0,78,30,0,15,23,8
10/03/94,08:00:00,0,0,9,57,0,0,0,78,30,0,22,21,19
10/03/94,08:05:00,2,0,31,32,0,0,0,78,30,0,17,14,13
10/03/94,08:10:00,21,0,23,48,0,0,0,78,30,0,13,17,10
10/03/94,08:15:00,21,0,15,61,0,0,0,78,30,0,17,26,10
10/03/94,08:20:00,17,0,20,49,0,0,0,78,30,0,21,18,18
10/03/94,08:25:00,21,0,27,53,0,0,0,78,30,0,15,13,13
10/03/94,08:30:00,9,0,6,47,0,0,0,78,30,0,13,21,10
10/03/94,08:35:00,2,0,14,41,0,0,0,78,30,0,20,23,8
10/03/94,08:40:00,2,0,35,53,0,0,0,78,30,0,20,15,19
10/03/94,08:45:00,4,13,1,59,0,0,0,78,30,0,14,15,14
10/03/94,08:50:00,9,0,22,49,0,0,0,78,30,0,15,24,10
10/03/94,08:55:00,19,0,14,34,0,0,0,78,34,0,22,19,8
10/03/94,09:00:00,19,0,26,35,0,0,0,78,34,0,18,14,17
10/03/94,09:05:00,28,0,35,55,0,0,0,78,34,0,13,22,16
10/03/94,09:10:00,35,0,43,50,0,0,0,78,34,0,16,21,11
10/03/94,09:15:00,8,0,44,51,0,0,0,78,34,0,22,14,9
10/03/94,09:20:00,4,0,5,54,0,0,0,78,34,0,17,18,17
10/03/94,09:25:00,23,0,10,49,0,0,0,77,34,0,13,23,16
10/03/94,09:30:00,24,0,2,61,0,0,0,77,34,0,15,15,11
10/03/94,09:35:00,1,0,13,60,0,0,0,78,34,0,23,17,10
10/03/94,09:40:00,1,0,15,51,0,0,0,77,34,0,19,24,19
10/03/94,09:45:00,9,6,16,51,0,0,0,77,34,0,14,16,13
10/03/94,09:50:00,10,0,10,48,0,0,0,77,34,0,16,16,10
10/03/94,09:55:00,3,0,3,48,0,0,0,80,34,0,23,25,19
10/03/94,10:00:00,0,0,4,55,0,0,0,80,32,0,18,18,15
10/03/94,10:05:00,0,0,5,57,0,0,0,80,32,0,13,15,11
10/03/94,10:10:00,18,0,6,39,0,0,0,80,32,0,18,24,13
10/03/94,10:15:00,1,0,33,46,0,0,0,80,32,0,21,21,18
10/03/94,10:20:00,32,0,48,50,0,0,0,80,32,0,16,14,13
10/03/94,10:25:00,5,0,7,38,0,0,0,80,32,0,15,20,9
10/03/94,10:30:00,5,1,2,51,0,0,0,80,32,0,21,24,20
10/03/94,10:35:00,10,0,15,60,0,0,0,80,32,0,18,16,15
10/03/94,10:40:00,4,0,4,53,0,0,0,80,32,0,14,17,10
10/03/94,10:45:00,15,0,33,58,0,0,0,80,32,0,19,26,16
10/03/94,10:50:00,2,0,33,50,0,0,0,80,32,0,20,19,16
10/03/94,10:55:00,0,0,15,44,0,0,0,80,32,0,15,14,12
10/03/94,11:00:00,9,0,7,42,0,0,0,80,32,0,15,22,10
10/03/94,11:05:00,0,0,11,59,0,0,0,79,32,0,22,22,19
10/03/94,11:10:00,4,0,8,52,0,0,0,80,32,0,18,15,14
10/03/94,11:15:00,2,0,18,51,0,0,0,80,32,0,13,17,10
10/03/94,11:20:00,1,0,0,40,0,0,0,80,32,0,19,27,18
10/03/94,11:25:00,4,0,29,44,0,0,0,80,32,0,20,18,16
10/03/94,11:30:00,0,0,29,59,0,0,0,80,32,0,16,15,12
10/03/94,11:35:00,1,0,18,49,0,0,0,80,32,0,17,23,13
10/03/94,11:40:00,2,0,27,54,0,0,0,80,32,0,22,21,18
10/03/94,11:45:00,1,0,4,49,0,0,0,80,32,0,17,14,12
10/03/94,11:50:00,13,0,10,52,0,0,0,80,32,0,14,20,12
10/03/94,11:55:00,9,3,4,55,0,0,0,79,28,0,21,25,19
10/03/94,12:00:00,3,0,14,43,0,0,0,79,28,0,18,16,13
10/03/94,12:05:00,0,9,0,58,0,0,0,79,28,0,14,15,10
10/03/94,12:10:00,0,0,24,60,0,0,0,79,28,0,15,24,13
10/03/94,12:15:00,10,0,12,57,0,0,0,79,28,0,21,19,16
10/03/94,12:20:00,11,0,8,48,0,0,0,79,28,0,17,13,12
10/03/94,12:25:00,20,0,1,58,0,0,0,79,28,0,13,17,10
10/03/94,12:30:00,0,0,9,55,0,0,0,76,28,0,18,25,8
10/03/94,12:35:00,0,5,15,61,0,0,0,76,29,0,21,17,7
10/03/94,12:40:00,6,0,5,53,0,0,0,77,29,0,16,12,14
10/03/94,12:45:00,1,0,11,51,0,0,0,76,28,0,12,19,17
10/03/94,12:50:00,10,0,9,54,0,0,0,76,28,0,12,22,12
10/03/94,12:55:00,3,23,0,64,0,0,0,76,28,0,19,15,10
10/03/94,13:00:00,9,8,5,59,0,0,0,76,28,0,18,11,9
10/03/94,13:05:00,20,21,13,59,0,0,0,76,28,0,14,9,8
10/03/94,13:10:00,9,21,3,51,0,0,0,76,28,0,11,8,7
10/03/94,13:15:00,10,3,6,54,0,0,0,76,28,0,9,12,7
10/03/94,13:20:00,17,15,15,61,0,0,0,76,28,0,16,22,7
10/03/94,13:25:00,29,15,21,50,0,0,0,75,28,0,16,16,7
10/03/94,13:30:00,30,14,14,53,0,0,0,75,28,0,14,12,6
10/03/94,13:35:00,26,10,22,47,0,0,0,75,28,0,11,10,6
10/03/94,13:40:00,29,13,13,52,0,0,0,75,28,0,10,8,6
10/03/94,13:45:00,30,13,19,54,0,0,0,75,28,0,9,7,6
10/03/94,13:50:00,32,5,24,53,0,0,0,75,28,0,8,7,7
10/03/94,13:55:00,0,17,0,0,0,0,0,76,28,0,9,10,7
10/03/94,14:00:00,0,0,0,0,0,0,0,77,28,0,18,23,19
10/03/94,14:05:00,0,0,0,0,0,0,0,77,29,0,29,31,20
10/03/94,14:10:00,0,0,0,0,0,0,0,77,29,0,23,22,23
10/03/94,14:15:00,0,0,0,0,0,0,0,78,29,0,27,31,25
10/03/94,14:20:00,0,0,0,0,0,0,0,78,29,0,36,36,30
10/03/94,14:25:00,0,0,0,0,0,0,0,78,29,0,25,26,23
10/03/94,14:30:00,0,0,0,0,0,0,0,78,29,0,32,35,36
10/03/94,14:35:00,0,0,0,0,0,0,0,78,29,0,38,38,27
10/03/94,14:40:00,0,0,0,0,0,0,0,78,29,0,27,28,31
10/03/94,14:45:00,0,0,0,0,0,0,0,78,29,0,35,36,34
10/03/94,14:50:00,0,0,0,0,0,0,0,78,29,0,38,40,25
10/03/94,14:55:00,0,0,0,0,0,0,0,78,29,0,29,29,39
10/03/94,15:00:00,0,0,0,0,0,0,0,79,29,0,38,38,29
10/03/94,15:05:00,0,0,0,0,0,0,0,79,29,0,35,40,33
10/03/94,15:10:00,0,0,0,0,0,0,0,79,29,0,32,30,35
10/03/94,15:15:00,0,0,0,0,0,0,0,79,29,0,39,38,27
10/03/94,15:20:00,0,0,0,0,0,0,0,79,29,0,39,41,39
10/03/94,15:25:00,0,0,0,0,0,0,0,79,29,0,30,42,32
10/03/94,15:30:00,0,0,0,0,0,0,0,79,29,0,38,28,30
10/03/94,15:35:00,0,0,0,0,0,0,0,79,29,0,39,35,37
10/03/94,15:40:00,0,0,0,0,0,0,0,79,29,0,36,40,27
10/03/94,15:45:00,0,0,0,0,0,0,0,79,39,0,34,43,41
10/03/94,15:50:00,0,0,0,0,0,0,0,79,29,0,41,30,31
10/03/94,15:55:00,0,0,0,0,0,0,0,79,29,0,40,37,32
10/03/94,16:00:00,0,0,0,0,0,0,0,79,29,0,42,42,38
10/03/94,16:05:00,0,0,0,0,0,0,0,79,29,0,29,30,28
10/03/94,16:10:00,0,0,0,0,0,0,0,79,29,0,37,36,41
10/03/94,16:15:00,0,0,0,0,0,0,0,79,29,0,42,40,33
10/03/94,16:20:00,0,0,0,0,0,0,0,79,29,0,31,40,30
10/03/94,16:25:00,0,0,0,0,0,0,0,79,29,0,34,33,38
10/03/94,16:30:00,0,0,0,0,0,0,0,79,27,0,42,40,28
10/03/94,16:35:00,0,0,0,0,0,0,0,79,27,0,29,35,40
10/03/94,16:40:00,0,0,0,0,0,0,0,79,27,0,35,34,34
10/03/94,16:45:00,0,0,0,0,0,0,0,79,27,0,41,39,30
10/03/94,16:50:00,0,0,0,0,0,0,0,79,27,0,41,41,38
10/03/94,16:55:00,0,0,0,0,0,0,0,79,27,0,36,42,29
10/03/94,17:00:00,0,0,0,0,0,0,0,79,27,0,33,34,36
10/03/94,17:05:00,0,0,0,0,0,0,0,79,27,0,42,34,35
10/03/94,17:10:00,0,0,0,0,0,0,0,79,27,0,30,39,27
10/03/94,17:15:00,0,0,0,0,0,0,0,79,27,0,34,41,41
10/03/94,17:20:00,0,0,0,0,0,0,0,79,27,0,41,37,32
10/03/94,17:25:00,0,0,0,0,0,0,0,79,27,0,41,33,34
10/03/94,17:30:00,0,0,0,0,0,0,0,79,27,0,32,43,38
10/03/94,17:35:00,0,0,0,0,0,0,0,79,27,0,33,28,29
10/03/94,17:40:00,0,0,0,0,0,0,1,79,27,0,42,37,41
10/03/94,17:45:00,0,0,0,0,0,0,1,79,27,0,29,43,32
10/03/94,17:50:00,0,0,0,0,0,0,1,79,27,0,37,27,31
10/03/94,17:55:00,0,0,0,0,0,0,1,79,27,0,43,38,38
10/03/94,18:00:00,0,0,0,0,0,1,2,79,27,0,28,43,28
10/03/94,18:05:00,0,0,0,0,1,1,2,79,27,0,38,40,39
10/03/94,18:10:00,0,0,0,0,1,1,3,79,27,0,42,40,34
10/03/94,18:15:00,0,0,0,0,2,1,4,79,27,0,28,30,27
10/03/94,18:20:00,0,0,0,0,2,1,4,79,27,0,36,34,39
10/03/94,18:25:00,0,0,0,0,2,2,4,79,27,0,41,41,29
10/03/94,18:30:00,0,0,0,0,2,2,5,79,27,0,29,32,37
10/03/94,18:35:00,0,0,0,0,3,2,5,79,27,0,40,35,36
10/03/94,18:40:00,0,0,0,0,3,2,5,79,27,0,33,43,27
10/03/94,18:45:00,0,0,0,0,3,2,6,79,27,0,32,27,41
10/03/94,18:50:00,0,0,0,0,3,2,6,79,27,0,42,39,29
10/03/94,18:55:00,0,0,0,0,3,2,6,79,27,0,28,35,34
10/03/94,19:00:00,0,0,0,0,4,2,7,79,27,0,34,31,35
10/03/94,19:05:00,0,0,0,0,5,3,8,79,27,0,41,39,28
10/03/94,19:10:00,0,0,0,0,5,3,8,79,27,0,30,41,40
10/03/94,19:15:00,0,0,0,0,5,3,9,79,27,0,37,40,30
10/03/94,19:20:00,0,0,0,0,5,3,9,79,27,0,38,30,33
10/03/94,19:25:00,0,0,0,0,7,4,11,79,27,0,31,37,37
10/03/94,19:30:00,0,0,0,0,8,5,14,79,27,0,40,40,28
10/03/94,19:35:00,0,0,0,0,9,6,15,79,34,0,28,30,33
10/03/94,19:40:00,0,0,0,0,10,6,17,79,34,0,34,33,36
10/03/94,19:45:00,0,0,0,0,11,7,18,79,34,0,41,39,27
10/03/94,19:50:00,0,0,0,0,11,8,19,79,34,0,29,34,35
10/03/94,19:55:00,0,0,0,0,12,8,20,79,34,0,36,31,35
10/03/94,20:00:00,0,0,0,0,12,9,21,80,33,0,37,38,26
10/03/94,20:05:00,0,0,0,0,13,9,22,80,34,0,31,40,37
10/03/94,20:10:00,0,0,0,0,13,10,22,80,34,0,38,29,32
10/03/94,20:15:00,0,0,0,0,13,10,23,80,34,0,31,34,26
10/03/94,20:20:00,0,0,0,0,14,10,24,80,34,0,33,40,36
10/03/94,20:25:00,0,0,0,0,14,11,25,86,34,0,37,28,31
10/03/94,20:30:00,0,0,0,0,15,11,26,86,34,0,28,34,25
10/03/94,20:35:00,0,0,0,0,15,12,27,80,34,0,35,39,39
10/03/94,20:40:00,0,0,0,0,16,12,28,80,34,0,39,38,29
10/03/94,20:45:00,0,0,0,0,16,13,29,80,34,0,29,29,29
10/03/94,20:50:00,0,0,0,0,17,13,30,80,42,0,36,36,37
10/03/94,20:55:00,0,0,0,0,18,14,31,80,34,0,32,34,28
10/03/94,21:00:00,0,0,0,0,18,14,32,80,34,0,31,30,30
10/03/94,21:05:00,0,0,0,0,19,15,32,79,34,0,37,38,35
10/03/94,21:10:00,0,0,0,0,19,15,33,79,34,0,26,26,27
10/03/94,21:15:00,0,0,0,0,20,15,35,79,34,0,35,34,27
10/03/94,21:20:00,0,0,0,0,20,16,35,79,34,0,26,32,33
10/03/94,21:25:00,0,0,0,0,21,16,37,126,34,0,30,28,28
10/03/94,21:30:00,0,0,0,0,23,17,39,79,33,0,37,36,30
10/03/94,21:35:00,0,0,0,0,23,17,39,79,34,0,25,31,32
10/03/94,21:40:00,0,0,0,0,26,18,43,79,34,0,34,29,23
10/03/94,21:45:00,0,0,0,0,26,18,43,79,33,0,27,35,27
10/03/94,21:50:00,0,0,0,0,27,18,44,79,33,0,28,25,31
10/03/94,21:55:00,0,0,0,0,29,19,46,79,33,0,32,33,20
10/03/94,22:00:00,0,0,0,0,29,19,47,79,33,0,22,25,28
10/03/94,22:05:00,0,0,0,0,30,20,48,78,33,0,31,28,26
10/03/94,22:10:00,0,0,0,0,32,20,51,78,33,0,25,29,20
10/03/94,22:15:00,0,0,0,0,33,20,52,79,33,0,23,23,29
10/03/94,22:20:00,0,0,0,0,35,21,54,78,33,0,30,32,18
10/03/94,22:25:00,0,9,10,0,36,21,56,78,33,0,21,21,27
10/03/94,22:30:00,0,15,2,2,38,21,57,78,33,0,23,23,17
10/03/94,22:35:00,0,0,0,0,39,22,59,77,33,0,24,25,13
10/03/94,22:40:00,5,3,18,0,40,22,60,77,27,0,18,17,11
10/03/94,22:45:00,2,2,15,1,40,22,61,77,33,0,15,13,18
10/03/94,22:50:00,16,0,7,2,41,23,61,77,41,0,14,21,13
10/03/94,22:55:00,2,9,17,2,41,23,62,77,41,0,20,21,10
10/03/94,23:00:00,3,5,10,0,42,23,63,76,41,0,17,15,9
10/03/94,23:05:00,2,3,13,3,42,24,64,76,41,0,14,12,8
10/03/94,23:10:00,18,8,4,6,43,24,65,76,41,0,12,16,8
10/03/94,23:15:00,7,4,4,2,43,24,65,76,41,0,11,22,7
10/03/94,23:20:00,1,7,15,0,44,24,66,77,41,0,10,16,7
10/03/94,23:25:00,0,0,9,0,44,25,66,77,41,0,17,12,18
10/03/94,23:30:00,0,4,5,3,44,25,67,77,41,0,22,21,16
10/03/94,23:35:00,4,8,12,4,45,25,67,77,41,0,17,18,12
10/03/94,23:40:00,0,1,2,0,45,25,68,77,41,0,14,13,10
10/03/94,23:45:00,5,2,6,3,45,25,68,77,41,0,13,14,10
10/03/94,23:50:00,2,0,3,0,46,25,69,77,41,0,16,25,20
10/03/94,23:55:00,5,1,9,0,46,26,69,77,41,0,21,19,14
10/04/94,00:00:00,9,0,2,0,46,26,69,77,41,0,17,14,11
